Weather History for Cape Girardeau, MO

Change the Weather History Date:

Monday, November 21, 2011

  Actual Average Record
Temperature  
Mean Temperature 48 °F 44 °F  
Max Temperature 52 °F 55 °F 71 °F (1990)
Min Temperature 44 °F 34 °F 13 °F (1964)
Degree Days  
Heating Degree Days 17 21  
Month to date heating degree days 263 344  
Since 1 July heating degree days 550 647  
Cooling Degree Days 0 0  
Month to date cooling degree days 1 0  
Year to date cooling degree days 1698 1451  
Moisture  
Dew Point 45 °F    
Average Humidity 93    
Maximum Humidity 100    
Minimum Humidity 86    
Precipitation  
Precipitation 0.35 in 0.16 in 1.48 in (1979)
Month to date precipitation 6.36 3.03  
Year to date precipitation 65.35 41.15  
Sea Level Pressure  
Sea Level Pressure 30.14 in    
Wind  
Wind Speed 5 mph (North)    
Max Wind Speed 18 mph    
Max Gust Speed 22 mph    
Visibility 6 miles    
Events Rain , Thunderstorm    
T = Trace of Precipitation, MM = Missing Value Source: NWS Daily Summary

Daily Weather History Graph

Daily Weather History Graph

Search for Another Location

Airport:

Trip Planner

Search our weather history database for the weather conditions in past years. The results will help you decide how hot, cold, wet, or windy it might be!

Date:

Astronomy

Nov. 21, 2011 Rise Set
Actual Time 6:43 AM CST 4:44 PM CST
Civil Twilight 6:15 AM CST 5:12 PM CST
Nautical Twilight 5:43 AM CST 5:44 PM CST
Astronomical Twilight 5:12 AM CST 6:15 PM CST
Moon 2:26 AM CST (11/21) 2:03 PM CST (11/21)
Length of Visible Light 10h 57m
Length of Day
10h 01m
Waning Crescent, 17% of the Moon is Illuminated
Nov 21
Waning Crescent
Nov 25
New
Dec 2
First Quarter
Dec 10
Full
Dec 17
Last Quarter

Hourly Weather History & Observations

Time (CST) Temp. Windchill Dew Point Humidity Pressure Visibility Wind Dir Wind Speed Gust Speed Precip Events Conditions
12:04 AM 44.6 °F 38.8 °F 42.8 °F 93% 30.18 in 3.0 mi SE 11.5 mph - 0.06 in Rain , Thunderstorm Heavy Thunderstorms and Rain
12:32 AM 44.6 °F - 42.8 °F 93% 30.09 in - North - - 0.10 in   Unknown
12:53 AM - - - N/A% 30.14 in - North - - 0.10 in   Unknown
1:53 AM 45.0 °F 42.6 °F 44.1 °F 97% 30.15 in 10.0 mi WNW 4.6 mph - N/A   Unknown
2:10 AM 44.6 °F 43.1 °F 42.8 °F 93% 30.14 in 7.0 mi West 3.5 mph - N/A   Overcast
2:53 AM 45.0 °F - 43.0 °F 93% 30.14 in - North - - 0.00 in   Unknown
3:07 AM - - - N/A% 30.15 in - North - - N/A Thunderstorm Unknown
3:22 AM 44.6 °F - 44.6 °F 100% 30.15 in 2.5 mi Calm Calm - N/A Rain , Thunderstorm Light Thunderstorms and Rain
3:37 AM 44.6 °F - 42.8 °F 93% 30.15 in 3.0 mi Calm Calm - N/A Rain , Thunderstorm Rain
3:45 AM 44.6 °F 39.2 °F 42.8 °F 93% 30.16 in 3.0 mi NW 10.4 mph - N/A Rain Rain
3:53 AM 45.0 °F 37.6 °F 43.0 °F 93% 30.21 in 3.0 mi NW 17.3 mph 20.7 mph N/A Rain Rain
4:15 AM 44.6 °F 40.7 °F 42.8 °F 93% 30.16 in 5.0 mi North 6.9 mph - 0.05 in Rain Rain
4:19 AM 44.6 °F 40.2 °F 42.8 °F 93% 30.15 in 6.0 mi NE 8.1 mph - 0.06 in Rain Rain
4:53 AM 46.0 °F 41.0 °F 44.1 °F 93% 30.14 in 9.0 mi NNW 10.4 mph - 0.09 in Rain Light Rain
5:12 AM 44.6 °F 39.2 °F 42.8 °F 93% 30.16 in 10.0 mi WNW 10.4 mph - 0.00 in   Overcast
5:53 AM 45.0 °F 42.6 °F 43.0 °F 93% 30.18 in 10.0 mi North 4.6 mph - 0.00 in   Overcast
6:53 AM 46.0 °F 43.9 °F 43.0 °F 89% 30.18 in 10.0 mi North 4.6 mph - N/A   Overcast
7:53 AM 46.0 °F 43.9 °F 43.0 °F 89% 30.19 in 10.0 mi North 4.6 mph - N/A   Overcast
8:53 AM 46.9 °F - 44.1 °F 90% 30.19 in 10.0 mi NE 4.6 mph - N/A   Overcast
9:53 AM 48.0 °F - 45.0 °F 89% 30.20 in 10.0 mi NNE 3.5 mph - N/A   Overcast
10:53 AM 48.9 °F - 46.0 °F 90% 30.19 in 4.0 mi NNW 3.5 mph - N/A   Overcast
11:19 AM 48.2 °F - 46.4 °F 93% 30.17 in 2.0 mi North 5.8 mph - N/A   Overcast
11:25 AM 48.2 °F - 46.4 °F 93% 30.17 in 1.8 mi North 6.9 mph - N/A   Overcast
11:53 AM 48.9 °F - 46.9 °F 93% 30.16 in 2.0 mi North 5.8 mph - N/A   Overcast
12:08 PM 48.2 °F - 46.4 °F 93% 30.15 in 3.0 mi NNW 4.6 mph - N/A   Overcast
12:53 PM 50.0 °F - 48.2 °F 94% 30.14 in 4.0 mi North 4.6 mph - N/A   Overcast
1:07 PM 50.0 °F - 46.4 °F 87% 30.14 in 6.0 mi NNW 5.8 mph - N/A   Overcast
1:53 PM 50.0 °F - 48.0 °F 93% 30.13 in 5.0 mi North 6.9 mph - N/A   Overcast
2:53 PM 51.1 °F - 48.0 °F 89% 30.11 in 6.0 mi NNE 4.6 mph - N/A   Overcast
3:53 PM 51.1 °F - 48.0 °F 89% 30.10 in 6.0 mi NNE 5.8 mph - N/A   Overcast
4:53 PM 51.1 °F - 48.0 °F 89% 30.11 in 7.0 mi Calm Calm - N/A   Overcast
5:53 PM 51.1 °F - 48.0 °F 89% 30.10 in 5.0 mi NNE 4.6 mph - N/A   Overcast
6:53 PM 50.0 °F - 48.0 °F 93% 30.11 in 5.0 mi NE 3.5 mph - N/A   Overcast
7:53 PM 50.0 °F - 48.0 °F 93% 30.10 in 6.0 mi NNE 3.5 mph - N/A   Overcast
8:53 PM 50.0 °F - 48.0 °F 93% 30.09 in 6.0 mi North 3.5 mph - N/A   Overcast
9:53 PM 50.0 °F - 48.0 °F 93% 30.05 in 4.0 mi NNE 9.2 mph - N/A   Overcast
10:17 PM 50.0 °F - 48.2 °F 94% 30.03 in 2.5 mi NE 10.4 mph - N/A   Overcast
10:53 PM 50.0 °F - 48.0 °F 93% 30.04 in 3.0 mi NE 5.8 mph - N/A   Overcast
11:53 PM 50.0 °F - 48.0 °F 93% 30.05 in 4.0 mi NNE 3.5 mph - 0.01 in Rain Light Rain